Home   Weather   USA   Okeechobee   Past weeks
Flag for USA

Past Weather in Okeechobee, Florida, USA — Yesterday and Last 2 Weeks

Currently: 77 °F. Thundershowers. Sunny. (Weather station: Okeechobee County Airport, USA). See more current weather

Past Weather in Okeechobee — Graph

°F

Okeechobee Temperature Yesterday

Maximum temperature yesterday: 86 °F (at 10:55 am)
Minimum temperature yesterday: 75 °F (at 10:55 pm)
Average temperature yesterday: 80 °F

High & Low Weather Summary for the Past Weeks

 TemperatureHumidityPressure
High99 °F (May 29, 3:15 pm)100% (May 28, 9:15 pm)30.13 "Hg (May 28, 9:15 pm)
Low64 °F (Jun 4, 6:35 am)29% (May 29, 4:55 pm)29.78 "Hg (Jun 6, 5:55 pm)
Average81 °F75%29.94 "Hg
* Reported May 28 10:15 am — Jun 12 10:15 am, Okeechobee. Weather by CustomWeather, © 2024

Note: Actual official high and low records may vary slightly from our data, if they occured in-between our weather recording intervals... More about our weather records

Okeechobee Weather History for the Previous 24 Hours

Scroll right to see more
 ConditionsComfort  
Time TempWeatherWind HumidityBarometerVisibility
10:15 am
Wed, Jun 12
77 °FThundershowers. Sunny.5 mph100%29.93 "Hg8 mi
9:35 am75 °FThundershowers. Fog.7 mph100%29.94 "Hg3 mi
9:15 am77 °FThundershowers. Fog.5 mph100%29.94 "Hg2 mi
8:55 am75 °FRain. Fog.3 mph100%29.93 "Hg2 mi
8:35 am75 °FHeavy rain. Fog.No wind100%29.93 "Hg0 mi
7:15 am77 °FHeavy rain. Fog.8 mph100%29.89 "Hg1 mi
6:55 am77 °FHeavy rain. Fog.6 mph100%29.90 "Hg1 mi
6:35 am77 °FHeavy rain. Fog.3 mph100%29.89 "Hg1 mi
6:15 am79 °FMostly cloudy.8 mph100%29.89 "Hg9 mi
5:55 am79 °FOvercast.5 mph100%29.88 "Hg10 mi
5:35 am79 °FMostly cloudy.10 mph100%29.87 "Hg10 mi
5:15 am79 °FLight rain. Overcast.10 mph100%29.86 "Hg10 mi
4:55 am79 °FPartly cloudy.10 mph100%29.87 "Hg10 mi
4:15 am79 °FThundershowers. Mostly cloudy.12 mph100%29.87 "Hg10 mi
3:35 am79 °FOvercast.14 mph100%29.86 "Hg10 mi
3:15 am77 °FMostly cloudy.15 mph100%29.86 "Hg10 mi
2:55 am77 °FPartly cloudy.16 mph100%29.86 "Hg10 mi
2:35 am77 °FLight rain. Fog.7 mph100%29.86 "Hg4 mi
2:15 am79 °FLight rain. Mostly cloudy.16 mph94%29.87 "Hg10 mi
1:55 am77 °FPartly cloudy.15 mph100%29.86 "Hg10 mi
1:35 am77 °FPartly cloudy.9 mph94%29.87 "Hg10 mi
12:55 am77 °FPassing clouds.14 mph100%29.88 "Hg10 mi
12:15 am77 °FLight rain. Passing clouds.16 mph100%29.89 "Hg10 mi
11:55 pm
Tue, Jun 11
77 °FLight rain. Partly cloudy.20 mph100%29.90 "Hg7 mi
11:35 pm77 °FLight rain. Fog.15 mph100%29.89 "Hg6 mi
11:15 pm75 °FLight rain. Fog.14 mph100%29.88 "Hg5 mi
10:55 pm75 °FLight rain. Fog.15 mph100%29.89 "Hg6 mi
10:15 pm77 °FRain. Fog.21 mph100%29.87 "Hg4 mi
9:55 pm77 °FRain. Fog.22 mph100%29.87 "Hg5 mi
9:15 pm77 °FPassing clouds.14 mph100%29.87 "Hg10 mi
8:35 pm77 °FPassing clouds.12 mph100%29.88 "Hg10 mi
7:55 pm77 °FPartly sunny.14 mph100%29.87 "Hg10 mi
7:35 pm77 °FBroken clouds.10 mph100%29.88 "Hg10 mi
7:15 pm77 °FPassing clouds.9 mph100%29.88 "Hg10 mi
6:55 pm77 °FLight rain. Sunny.12 mph100%29.87 "Hg10 mi
6:35 pm77 °FLight rain. Sunny.12 mph100%29.86 "Hg10 mi
6:15 pm77 °FLight rain. Passing clouds.10 mph100%29.87 "Hg9 mi
5:55 pm79 °FLight rain. Sunny.12 mph94%29.87 "Hg10 mi
5:35 pm79 °FLight rain. Sunny.15 mph89%29.87 "Hg10 mi
5:15 pm79 °FSunny.15 mph89%29.87 "Hg10 mi
4:55 pm79 °FLight rain. Scattered clouds.13 mph94%29.88 "Hg10 mi
4:35 pm79 °FLight rain. Fog.15 mph94%29.89 "Hg3 mi
3:35 pm84 °FBroken clouds.17 mph74%29.87 "Hg10 mi
2:55 pm86 °FBroken clouds.12 mph70%29.88 "Hg10 mi
2:35 pm84 °FCloudy.16 mph70%29.88 "Hg10 mi
2:15 pm86 °FLight rain. Cloudy.14 mph70%29.89 "Hg9 mi
1:55 pm86 °FScattered clouds.14 mph66%29.89 "Hg10 mi
1:35 pm84 °FPartly sunny.14 mph70%29.90 "Hg10 mi
1:20 pm84 °FBroken clouds.14 mph70%29.90 "Hg10 mi
12:35 pm86 °FBroken clouds.14 mph66%29.90 "Hg10 mi
12:15 pm86 °FMostly cloudy.17 mph66%29.90 "Hg10 mi
11:55 am86 °FPartly sunny.16 mph66%29.91 "Hg10 mi
11:35 am86 °FBroken clouds.16 mph66%29.89 "Hg10 mi
11:15 am86 °FScattered clouds.17 mph66%29.88 "Hg10 mi
Weather by CustomWeather, © 2024

See weather overview